W9PVR-13 Weather Reports


time (UTC)temp
C
wind
direction
speed
KPH
gust
KPH
rain 1hr
cm
rain 24hr
cm
rain mn
cm
humidity
%
barometer
mb
20260906160730 -17 175 1.6 1.6 0.00 0.00 0.00 75 983.2
20260906160229 -17 175 1.6 1.6 0.00 0.00 0.00 74 982.9
20260906155729 -17 190 1.6 1.6 0.00 0.00 0.00 75 983.1
20260906155229 -17 190 0.0 0.0 0.00 0.00 0.00 78 983.1
20260906154728 -17 190 1.6 1.6 0.00 0.00 0.00 75 982.8
20260906154228 -17 141 0.0 0.0 0.00 0.00 0.00 75 982.8
20260906153727 -17 140 0.0 0.0 0.00 0.00 0.00 76 983.0
20260906153227 -17 141 0.0 0.0 0.00 0.00 0.00 78 983.0
20260906152727 -17 141 1.6 1.6 0.00 0.00 0.00 77 982.9
20260906152226 -17 140 1.6 1.6 0.00 0.00 0.00 74 983.1
20260906151726 -17 141 3.2 1.6 0.00 0.00 0.00 78 983.0
20260906151225 -17 140 1.6 1.6 0.00 0.00 0.00 77 982.9
20260906150725 -17 140 0.0 0.0 0.00 0.00 0.00 77 982.9
20260906150224 -17 140 0.0 0.0 0.00 0.00 0.00 75 982.9
20260906145724 -17 141 1.6 1.6 0.00 0.00 0.00 73 982.5
20260906145224 -17 140 1.6 1.6 0.00 0.00 0.00 71 982.8
20260906144723 -17 141 0.0 0.0 0.00 0.00 0.00 74 982.8
20260906144223 -17 140 1.6 1.6 0.00 0.00 0.00 75 982.9
20260906143722 -17 140 1.6 1.6 0.00 0.00 0.00 75 982.8
20260906143222 -17 141 1.6 1.6 0.00 0.00 0.00 79 982.7
20260906142722 -17 141 0.0 0.0 0.00 0.00 0.00 80 982.7
20260906142222 -17 140 0.0 0.0 0.00 0.00 0.00 80 982.6
20260906141721 -17 139 1.6 3.2 0.00 0.00 0.00 80 982.8
20260906141221 -17 140 1.6 1.6 0.00 0.00 0.00 81 982.7
20260906140720 -17 141 3.2 3.2 0.00 0.00 0.00 81 983.0
20260906140220 -17 146 1.6 1.6 0.00 0.00 0.00 82 982.9
20260906135720 -17 146 0.0 0.0 0.00 0.00 0.00 85 982.7
20260906135219 -17 145 0.0 0.0 0.00 0.00 0.00 90 982.6
20260906134719 -17 145 0.0 0.0 0.00 0.00 0.00 93 982.8
20260906134218 -17 145 0.0 0.0 0.00 0.00 0.00 96 982.8
20260906133718 -17 144 1.6 1.6 0.00 0.00 0.00 98 982.9
20260906133218 -17 144 0.0 0.0 0.00 0.00 0.00 98 983.1
20260906132717 -17 144 0.0 0.0 0.00 0.00 0.00 98 983.0
20260906132217 -17 144 0.0 0.0 0.00 0.00 0.00 98 982.8
20260906131716 -17 144 0.0 0.0 0.00 0.00 0.00 98 982.8
20260906131216 -17 144 0.0 0.0 0.00 0.00 0.00 98 982.8
20260906130716 -17 144 0.0 0.0 0.00 0.00 0.00 98 982.7
20260906130215 -17 144 0.0 0.0 0.00 0.00 0.00 98 982.5
20260906125715 -17 144 0.0 0.0 0.00 0.00 0.00 98 982.6
20260906125214 -17 144 0.0 0.0 0.00 0.00 0.00 98 982.5
20260906124714 -17 143 0.0 0.0 0.00 0.00 0.00 98 982.5
20260906124214 -17 143 0.0 0.0 0.00 0.00 0.00 98 982.4
20260906123713 -17 144 0.0 0.0 0.00 0.00 0.00 98 982.4
20260906123213 -17 144 0.0 0.0 0.00 0.00 0.00 98 982.5
20260906122713 -17 143 0.0 0.0 0.00 0.00 0.00 98 982.4
20260906122212 -17 144 0.0 0.0 0.00 0.00 0.00 98 982.2
20260906121712 -17 144 0.0 0.0 0.00 0.00 0.00 98 982.2
20260906121212 -17 144 0.0 0.0 0.00 0.00 0.00 98 982.1
20260906120711 -17 144 0.0 0.0 0.00 0.00 0.00 98 982.3
20260906120211 -17 144 0.0 0.0 0.00 0.00 0.00 98 982.1
20260906115711 -17 144 0.0 0.0 0.00 0.00 0.00 98 982.1
20260906115210 -17 144 0.0 0.0 0.00 0.00 0.00 98 981.9
20260906114710 -17 144 0.0 0.0 0.00 0.00 0.00 98 982.0
20260906114209 -17 144 0.0 0.0 0.00 0.00 0.00 98 982.0
20260906113709 -17 144 0.0 0.0 0.00 0.00 0.00 98 982.0
20260906113209 -17 144 1.6 1.6 0.00 0.00 0.00 98 982.0
20260906112708 -17 144 0.0 0.0 0.00 0.00 0.00 98 981.9
20260906112208 -17 144 0.0 0.0 0.00 0.00 0.00 98 982.0
20260906111708 -17 144 0.0 0.0 0.00 0.00 0.00 98 981.8
20260906111207 -17 144 0.0 0.0 0.00 0.00 0.00 98 981.9
20260906110707 -17 144 0.0 0.0 0.00 0.00 0.00 98 981.9
20260906110207 -17 144 0.0 0.0 0.00 0.00 0.00 98 981.9
20260906105706 -17 144 0.0 0.0 0.00 0.00 0.00 98 981.6
20260906105206 -17 144 0.0 0.0 0.00 0.00 0.00 98 981.6
20260906104705 -17 144 0.0 0.0 0.00 0.00 0.00 98 981.2
20260906104205 -17 144 0.0 0.0 0.00 0.00 0.00 98 981.3
20260906103705 -17 144 0.0 0.0 0.00 0.00 0.00 98 981.2
20260906103204 -17 144 0.0 0.0 0.00 0.00 0.00 98 981.1
20260906102704 -17 144 0.0 0.0 0.00 0.00 0.00 98 981.1
20260906102204 -17 144 0.0 0.0 0.00 0.00 0.00 98 981.1
20260906101703 -17 144 0.0 0.0 0.00 0.00 0.00 98 980.9
20260906101203 -17 144 0.0 0.0 0.00 0.00 0.00 98 980.7
20260906100703 -17 144 0.0 0.0 0.00 0.00 0.00 98 980.8
20260906100202 -17 144 0.0 0.0 0.00 0.00 0.00 98 980.9
20260906095702 -17 144 0.0 0.0 0.00 0.00 0.00 98 981.0
20260906095201 -17 144 0.0 0.0 0.00 0.00 0.00 98 981.0
20260906094701 -17 144 0.0 0.0 0.00 0.00 0.00 98 981.1
20260906094201 -17 144 0.0 0.0 0.00 0.00 0.00 98 981.1
20260906093700 -17 144 0.0 0.0 0.00 0.00 0.00 98 981.3
20260906093200 -17 144 0.0 0.0 0.00 0.00 0.00 98 981.2
20260906092700 -17 144 1.6 0.0 0.00 0.00 0.00 98 981.2
20260906092159 -17 144 0.0 0.0 0.00 0.00 0.00 97 981.4
20260906091659 -17 144 0.0 0.0 0.00 0.00 0.00 97 981.3
20260906091158 -17 144 0.0 0.0 0.00 0.00 0.00 97 981.2
20260906090658 -17 144 0.0 0.0 0.00 0.00 0.00 97 981.2
20260906090158 -17 144 0.0 0.0 0.00 0.00 0.00 97 981.2
20260906085657 -17 144 1.6 1.6 0.00 0.00 0.00 97 981.1
20260906085157 -17 144 1.6 1.6 0.00 0.00 0.00 97 981.1
20260906084657 -17 144 0.0 0.0 0.00 0.00 0.00 97 981.0
20260906084156 -17 144 0.0 0.0 0.00 0.00 0.00 97 981.1
20260906083656 -17 144 0.0 0.0 0.00 0.00 0.00 97 981.0
20260906083155 -17 144 0.0 0.0 0.00 0.00 0.00 97 981.1
20260906082655 -17 144 0.0 0.0 0.00 0.00 0.00 97 981.2
20260906082155 -17 144 0.0 0.0 0.00 0.00 0.00 97 981.2
20260906081654 -17 144 1.6 0.0 0.00 0.00 0.00 96 981.5
20260906081154 -17 144 1.6 1.6 0.00 0.00 0.00 95 981.1
20260906080654 -17 144 1.6 1.6 0.00 0.00 0.00 95 981.1
20260906080153 -17 144 1.6 0.0 0.00 0.00 0.00 96 981.1
20260906075653 -17 144 0.0 0.0 0.00 0.00 0.00 96 981.3
20260906075153 -17 144 0.0 0.0 0.00 0.00 0.00 96 981.2
20260906074652 -17 144 0.0 0.0 0.00 0.00 0.00 96 981.2
20260906074152 -17 144 0.0 0.0 0.00 0.00 0.00 96 981.2
20260906073651 -17 144 0.0 0.0 0.00 0.00 0.00 96 981.4
20260906073151 -17 144 0.0 0.0 0.00 0.00 0.00 96 981.3
20260906072651 -17 144 0.0 0.0 0.00 0.00 0.00 96 981.1
20260906072150 -17 144 0.0 0.0 0.00 0.00 0.00 96 981.6
20260906071650 -17 144 0.0 0.0 0.00 0.00 0.00 96 981.2
20260906071150 -17 144 1.6 0.0 0.00 0.00 0.00 96 981.4
20260906070649 -17 144 0.0 0.0 0.00 0.00 0.00 96 981.3
20260906070149 -17 144 0.0 0.0 0.00 0.00 0.00 96 981.5
20260906065648 -17 144 0.0 0.0 0.00 0.00 0.00 96 981.3
20260906065148 -17 144 0.0 0.0 0.00 0.00 0.00 96 981.2
20260906064648 -17 144 0.0 0.0 0.00 0.00 0.00 96 981.4
20260906064147 -17 144 0.0 0.0 0.00 0.00 0.00 96 981.2
20260906063647 -17 144 0.0 0.0 0.00 0.00 0.00 95 981.5
20260906063146 -17 144 0.0 0.0 0.00 0.00 0.00 95 981.6
20260906062646 -17 144 0.0 0.0 0.00 0.00 0.00 95 981.5
20260906062146 -17 144 0.0 0.0 0.00 0.00 0.00 95 981.6
20260906061645 -17 144 0.0 0.0 0.00 0.00 0.00 95 981.4
20260906061145 -17 144 0.0 0.0 0.00 0.00 0.00 95 981.3
20260906060645 -17 144 0.0 0.0 0.00 0.00 0.00 95 981.3
20260906060144 -17 144 0.0 0.0 0.00 0.00 0.00 95 981.3
20260906055644 -17 144 0.0 0.0 0.00 0.00 0.00 95 980.9
20260906055143 -17 144 0.0 0.0 0.00 0.00 0.00 94 981.2
20260906054643 -17 144 0.0 0.0 0.00 0.00 0.00 94 981.4
20260906054143 -17 144 0.0 0.0 0.00 0.00 0.00 94 981.2
20260906053642 -17 144 0.0 0.0 0.00 0.00 0.00 94 981.4
20260906053142 -17 144 0.0 0.0 0.00 0.00 0.00 94 981.3
20260906052642 -17 144 1.6 1.6 0.00 0.00 0.00 94 981.4
20260906052141 -17 144 0.0 0.0 0.00 0.00 0.00 94 981.3
20260906051641 -17 144 0.0 0.0 0.00 0.00 0.00 94 981.3
20260906051140 -17 144 0.0 0.0 0.00 0.00 0.00 94 981.4
20260906050640 -17 144 0.0 0.0 0.00 0.00 0.00 94 981.4
20260906050140 -17 144 0.0 0.0 0.00 0.00 0.00 94 981.5
20260906045639 -17 144 0.0 0.0 0.00 0.00 0.00 94 981.2
20260906045139 -17 144 0.0 0.0 0.00 0.00 0.00 94 981.4
20260906044639 -17 144 0.0 0.0 0.00 0.00 0.00 94 981.4
20260906044138 -17 144 0.0 0.0 0.00 0.00 0.00 94 981.2
20260906043638 -17 144 0.0 0.0 0.00 0.00 0.00 94 981.3
20260906043137 -17 144 0.0 0.0 0.00 0.00 0.00 93 981.4
20260906042637 -17 144 0.0 0.0 0.00 0.00 0.00 93 981.2
20260906042137 -17 144 0.0 0.0 0.00 0.00 0.00 93 981.2
20260906041636 -17 144 0.0 0.0 0.00 0.00 0.00 93 981.2
20260906041136 -17 144 0.0 0.0 0.00 0.00 0.00 92 981.2
20260906040636 -17 144 0.0 0.0 0.00 0.00 0.00 92 981.0
20260906040135 -17 144 0.0 0.0 0.00 0.00 0.00 92 981.0
20260906035635 -17 144 0.0 0.0 0.00 0.00 0.00 92 980.9
20260906035134 -17 144 0.0 0.0 0.00 0.00 0.00 92 980.9
20260906034634 -17 144 0.0 0.0 0.00 0.00 0.00 91 980.8
20260906034134 -17 144 0.0 0.0 0.00 0.00 0.00 91 980.8
20260906033633 -17 144 0.0 0.0 0.00 0.00 0.00 91 980.5
20260906033133 -17 144 0.0 0.0 0.00 0.00 0.00 90 980.6
20260906032633 -17 144 0.0 0.0 0.00 0.00 0.00 90 980.5
20260906032132 -17 144 0.0 0.0 0.00 0.00 0.00 90 980.5
20260906031632 -17 142 1.6 1.6 0.00 0.00 0.00 90 980.4
20260906031131 -17 145 0.0 0.0 0.00 0.00 0.00 89 980.3
20260906030631 -17 144 1.6 1.6 0.00 0.00 0.00 89 980.4
20260906030131 -17 140 3.2 6.4 0.00 0.00 0.00 89 980.2
20260906025630 -17 114 1.6 1.6 0.00 0.00 0.00 89 980.0
20260906025130 -17 121 0.0 0.0 0.00 0.00 0.00 88 980.0
20260906024630 -17 116 4.8 9.7 0.00 0.00 0.00 88 979.7
20260906024129 -17 137 1.6 1.6 0.00 0.00 0.00 88 980.1
20260906023629 -17 137 1.6 1.6 0.00 0.00 0.00 88 979.8
20260906023128 -17 143 0.0 0.0 0.00 0.00 0.00 88 980.0
20260906022628 -17 131 0.0 1.6 0.00 0.00 0.00 87 980.0
20260906022128 -17 138 1.6 1.6 0.00 0.00 0.00 88 979.8
20260906021627 -17 138 0.0 0.0 0.00 0.00 0.00 88 979.6
20260906021127 -17 138 0.0 0.0 0.00 0.00 0.00 88 979.8
20260906020627 -17 129 1.6 1.6 0.00 0.00 0.00 87 979.6
20260906020126 -17 130 1.6 1.6 0.00 0.00 0.00 87 979.6
20260906015626 -17 133 0.0 0.0 0.00 0.00 0.00 87 979.3
20260906015125 -17 103 0.0 0.0 0.00 0.00 0.00 87 979.2
20260906014625 -17 117 1.6 1.6 0.00 0.00 0.00 86 979.2
20260906014125 -17 116 1.6 1.6 0.00 0.00 0.00 86 979.1
20260906013624 -17 118 1.6 1.6 0.00 0.00 0.00 86 979.1
20260906013124 -17 104 0.0 0.0 0.00 0.00 0.00 85 979.1
20260906012624 -17 112 0.0 0.0 0.00 0.00 0.00 85 979.0
20260906012123 -17 128 3.2 4.8 0.00 0.00 0.00 84 979.0
20260906011623 -17 139 1.6 1.6 0.00 0.00 0.00 83 979.0
20260906011122 -17 129 1.6 1.6 0.00 0.00 0.00 83 978.8
20260906010622 -17 118 3.2 3.2 0.00 0.00 0.00 83 978.8
20260906010122 -17 85 1.6 1.6 0.00 0.00 0.00 82 978.9
20260906005621 -17 121 0.0 0.0 0.00 0.00 0.00 82 978.5
20260906005121 -17 168 0.0 1.6 0.00 0.00 0.00 81 978.7
20260906004621 -17 124 1.6 1.6 0.00 0.00 0.00 81 978.5
20260906004120 -17 143 1.6 1.6 0.00 0.00 0.00 81 978.5
20260906003620 -17 147 3.2 3.2 0.00 0.00 0.00 81 978.8
20260906003120 -17 148 1.6 1.6 0.00 0.00 0.00 80 978.7
20260906002619 -17 119 1.6 1.6 0.00 0.00 0.00 80 978.6
20260906002119 -17 119 1.6 1.6 0.00 0.00 0.00 80 978.7
20260906001618 -17 125 1.6 1.6 0.00 0.00 0.00 80 978.5
20260906001118 -17 104 3.2 3.2 0.00 0.00 0.00 81 978.7
20260906000618 -17 89 1.6 1.6 0.00 0.00 0.00 81 978.7
20260906000117 -17 140 1.6 1.6 0.00 0.00 0.00 81 978.8
20260905235617 -17 141 3.2 1.6 0.00 0.00 0.00 81 979.0
20260905235117 -17 159 1.6 1.6 0.00 0.00 0.00 82 979.1
20260905234616 -17 159 1.6 1.6 0.00 0.00 0.00 82 978.9
20260905234116 -17 159 1.6 1.6 0.00 0.00 0.00 82 979.1
20260905233615 -17 159 0.0 0.0 0.00 0.00 0.00 81 979.2
20260905233115 -17 159 1.6 1.6 0.00 0.00 0.00 82 979.0
20260905232615 -17 159 1.6 1.6 0.00 0.00 0.00 80 979.1
20260905232114 -17 159 1.6 1.6 0.00 0.00 0.00 80 979.2
20260905231614 -17 164 1.6 1.6 0.00 0.00 0.00 80 979.2
20260905231114 -17 164 1.6 1.6 0.00 0.00 0.00 80 979.2
20260905230613 -17 164 0.0 0.0 0.00 0.00 0.00 79 978.9
20260905230113 -17 164 0.0 0.0 0.00 0.00 0.00 78 979.1
20260905225612 -17 164 0.0 0.0 0.00 0.00 0.00 77 979.0
20260905225112 -17 164 0.0 0.0 0.00 0.00 0.00 77 979.2
20260905224612 -17 165 1.6 1.6 0.00 0.00 0.00 76 979.2
20260905224111 -17 165 0.0 0.0 0.00 0.00 0.00 77 978.9
20260905223611 -17 165 1.6 1.6 0.00 0.00 0.00 76 979.0
20260905223110 -17 166 0.0 0.0 0.00 0.00 0.00 77 978.9
20260905222610 -17 166 0.0 0.0 0.00 0.00 0.00 78 979.0
20260905222110 -17 166 0.0 0.0 0.00 0.00 0.00 78 979.1
20260905221609 -17 166 0.0 0.0 0.00 0.00 0.00 77 979.0
20260905221109 -17 166 0.0 0.0 0.00 0.00 0.00 76 979.3
20260905220609 -17 166 0.0 0.0 0.00 0.00 0.00 77 979.2
20260905220108 -17 166 0.0 0.0 0.00 0.00 0.00 77 979.3
20260905215608 -17 166 0.0 0.0 0.00 0.00 0.00 77 979.3
20260905215107 -17 166 0.0 0.0 0.00 0.00 0.00 76 979.3
20260905214607 -17 166 0.0 0.0 0.00 0.00 0.00 74 979.0
20260905214107 -17 166 0.0 0.0 0.00 0.00 0.00 73 979.2
20260905213606 -17 166 0.0 0.0 0.00 0.00 0.00 73 979.2
20260905213106 -17 166 0.0 0.0 0.00 0.00 0.00 71 979.4
20260905212605 -17 166 0.0 0.0 0.00 0.00 0.00 73 979.1
20260905212105 -17 166 0.0 0.0 0.00 0.00 0.00 74 979.2
20260905211605 -17 166 0.0 0.0 0.00 0.00 0.00 74 979.0
20260905211104 -17 166 0.0 0.0 0.00 0.00 0.00 71 979.2
20260905210604 -17 169 1.6 1.6 0.00 0.00 0.00 69 979.0
20260905210103 -17 170 0.0 0.0 0.00 0.00 0.00 68 979.0
20260905205603 -17 170 1.6 0.0 0.00 0.00 0.00 70 978.9
20260905205103 -17 170 1.6 1.6 0.00 0.00 0.00 73 978.9
20260905204602 -17 195 0.0 0.0 0.00 0.00 0.00 74 979.0
20260905204102 -17 196 0.0 0.0 0.00 0.00 0.00 76 979.0
20260905203601 -17 196 0.0 0.0 0.00 0.00 0.00 77 979.3
20260905203101 -17 199 0.0 0.0 0.00 0.00 0.00 76 979.3
20260905202601 -17 199 0.0 0.0 0.00 0.00 0.00 78 979.5
20260905202100 -17 199 1.6 1.6 0.00 0.00 0.00 75 979.6
20260905201600 -17 200 1.6 1.6 0.00 0.00 0.00 72 979.5
20260905201100 -17 200 1.6 1.6 0.00 0.00 0.00 72 979.5
20260905200559 -17 200 1.6 1.6 0.00 0.00 0.00 73 979.3
20260905200059 -17 200 1.6 1.6 0.00 0.00 0.00 78 979.5
20260905195558 -17 199 0.0 0.0 0.00 0.00 0.00 82 979.4
20260905195058 -17 199 0.0 0.0 0.00 0.00 0.00 82 979.6
20260905194558 -17 199 1.6 1.6 0.00 0.00 0.00 81 979.4
20260905194057 -17 199 0.0 0.0 0.00 0.00 0.00 80 979.5
20260905193557 -17 199 0.0 0.0 0.00 0.00 0.00 80 979.5
20260905193057 -17 199 0.0 0.0 0.00 0.00 0.00 81 979.4
20260905192556 -17 200 1.6 1.6 0.00 0.00 0.00 80 979.5
20260905192055 -17 199 1.6 1.6 0.00 0.00 0.00 81 979.4
20260905191555 -17 199 0.0 0.0 0.00 0.00 0.00 83 979.5
20260905191055 -17 198 0.0 0.0 0.00 0.00 0.00 82 979.5
20260905190555 -17 198 1.6 1.6 0.00 0.00 0.00 81 979.8
20260905190054 -17 198 1.6 1.6 0.00 0.00 0.00 82 979.5
20260905185554 -17 198 0.0 0.0 0.00 0.00 0.00 81 979.5
20260905185053 -17 202 1.6 0.0 0.00 0.00 0.00 83 979.8
20260905184553 -17 202 0.0 0.0 0.00 0.00 0.00 83 979.4
20260905184052 -17 133 0.0 0.0 0.00 0.00 0.00 84 979.7
20260905183552 -17 133 0.0 0.0 0.00 0.00 0.00 86 979.9
20260905183052 -17 133 0.0 0.0 0.00 0.00 0.00 85 979.7
20260905182551 -17 133 0.0 0.0 0.00 0.00 0.00 85 980.0
20260905182051 -17 133 0.0 0.0 0.00 0.00 0.00 87 980.0
20260905181551 -17 134 0.0 1.6 0.00 0.00 0.00 86 980.0
20260905181050 -17 134 0.0 0.0 0.00 0.00 0.00 86 980.2
20260905180550 -17 134 1.6 1.6 0.00 0.00 0.00 85 979.9
20260905180049 -17 109 1.6 1.6 0.00 0.00 0.00 84 980.0
20260905175549 -17 109 0.0 0.0 0.00 0.00 0.00 83 980.1
20260905175049 -17 119 1.6 1.6 0.00 0.00 0.00 84 979.9
20260905174548 -17 128 0.0 0.0 0.00 0.00 0.00 87 980.0
20260905174048 -17 129 0.0 0.0 0.00 0.00 0.00 87 980.2
20260905173547 -17 131 1.6 1.6 0.00 0.00 0.00 86 980.1
20260905173047 -17 128 3.2 3.2 0.00 0.00 0.00 86 980.2
20260905172547 -17 122 1.6 1.6 0.00 0.00 0.00 86 980.0
20260905172047 -17 143 1.6 0.0 0.00 0.00 0.00 86 979.9
20260905171546 -17 143 0.0 0.0 0.00 0.00 0.00 86 980.0
20260905171045 -17 145 1.6 3.2 0.00 0.00 0.00 86 980.1
20260905170545 -17 146 1.6 1.6 0.00 0.00 0.00 86 979.7
20260905170045 -17 133 1.6 1.6 0.00 0.00 0.00 85 980.1
20260905165544 -17 133 0.0 0.0 0.00 0.00 0.00 85 980.1
20260905165044 -17 132 0.0 0.0 0.00 0.00 0.00 85 980.0
20260905164544 -17 130 0.0 0.0 0.00 0.00 0.00 86 979.9
20260905164043 -17 135 1.6 1.6 0.00 0.00 0.00 86 980.0
20260905163543 -17 134 1.6 1.6 0.00 0.00 0.00 87 979.9
20260905163042 -17 134 3.2 3.2 0.00 0.00 0.00 86 980.0
20260905162542 -17 151 3.2 3.2 0.00 0.00 0.00 87 980.0
20260905162041 -17 127 3.2 3.2 0.00 0.00 0.00 87 980.0
20260905161541 -17 130 3.2 4.8 0.00 0.00 0.00 87 980.0
20260905161040 -17 133 1.6 1.6 0.00 0.00 0.00 87 979.9